Aviation Digital Data Service (ADDS)

Output produced by METARs form (1938 UTC 25 March 2017)
found at http://www.aviationweather.gov/adds/metars/
 
LECO 251930Z 00000KT 9999 FEW013 SCT040 08/07 Q1010 NOSIG
TAF LECO 251400Z 2515/2615 01005KT 9999 SCT040 TX11/2614Z TN07/2606Z 
     TEMPO 2515/2516 RA 
     PROB30 
     TEMPO 2516/2521 RA BKN010 
     TEMPO 2521/2603 RA 
     PROB30 
     TEMPO 2603/2615 RA 
     TEMPO 2522/2609 BKN010 
     BECMG 2602/2606 18010KT 
     TEMPO 2609/2615 19015G30KT
       
LEAB 251900Z 09006KT 050V120 9999 FEW040 11/02 Q1015 NOSIG
TAF LEAB 251700Z 2518/2603 28012KT 9999 FEW040
       
LERI 251800Z 17012KT 9999 FEW030 14/06 Q1015 NOSIG
TAF LERI 251400Z 2515/2524 18008KT 9999 FEW030
       
LEAL 251930Z 14003KT 080V180 CAVOK 12/08 Q1017 NOSIG
TAF LEAL 251700Z 2518/2618 18012KT CAVOK TX21/2612Z TN08/2606Z 
     BECMG 2518/2520 VRB04KT 
     TEMPO 2602/2608 33008KT 
     BECMG 2608/2611 08010KT
       
LEAM 251930Z 34004KT 320V080 CAVOK 13/04 Q1015
TAF LEAM 251400Z 2515/2615 20012KT 9999 FEW030 TX18/2615Z TN09/2606Z 
     BECMG 2519/2521 33006KT
       
TAF LEGA 251400Z 2515/2524 19008KT CAVOK
       
LEAS 251930Z VRB01KT 9999 -RA FEW045 BKN050 07/06 Q1011 NOSIG
TAF LEAS 251400Z 2515/2615 21007KT 9999 BKN040 TX16/2615Z TN05/2601Z 
     PROB40 
     TEMPO 2515/2523 3000 RA 
     TEMPO 2515/2522 28012KT 
     TEMPO 2609/2615 11010KT
       
LEMD 251930Z VRB02KT 9999 SCT030 BKN055 08/05 Q1013 NOSIG
TAF LEMD 251700Z 2518/2624 20010KT 9999 BKN030 BKN060 TX15/2615Z TN05/2606Z 
     PROB30 
     TEMPO 2518/2519 4000 SHRA SCT030TCU 
     TEMPO 2518/2522 4000 RA BKN012 
     PROB40 
     TEMPO 2609/2612 3000 RADZ BKN008
       
LEBL 251930Z 33008KT 9999 FEW030 11/05 Q1017 NOSIG
TAF LEBL 251700Z 2518/2618 VRB05KT 9999 SCT030 TX18/2613Z TN09/2606Z 
     TEMPO 2518/2523 22008KT 
     TEMPO 2600/2610 34008KT 
     PROB30 
     TEMPO 2602/2608 BKN014 
     BECMG 2610/2612 22010KT
       
LEBB 251930Z 18004KT 090V260 9000 -RA SCT020 BKN044 08/06 Q1012 TEMPO 3000 RA
TAF LEBB 251700Z 2518/2618 VRB04KT 9999 SCT010 BKN025 TX18/2614Z TN06/2604Z 
     PROB40 
     TEMPO 2518/2521 3000 RA BKN010 
     BECMG 2523/2603 18010KT 
     TEMPO 2612/2618 18015G28KT
       
LEBG 251930Z AUTO 12003KT 090V150 CAVOK 03/01 Q1011
TAF LEBG 251700Z 2518/2603 26008KT 9999 BKN035 
     PROB30 
     TEMPO 2518/2521 RA BKN010
       
LEBA 251930Z AUTO 21008KT 9999 BKN049 12/08 Q1016
TAF LEBA 251400Z 2515/2524 VRB02KT 9999 SCT030 
     PROB40 
     TEMPO 2515/2521 22015G25KT 4000 SHRA FEW030TCU
       
LEVS 251900Z 15005KT 9999 -RA BKN030 OVC045 07/04 Q1013
TAF LEVS 251700Z 2518/2603 23008KT 9999 SCT025 BKN030 
     PROB30 
     TEMPO 2518/2519 4000 SHRA SCT030TCU 
     TEMPO 2518/2522 4000 RA BKN012
       
GCFV 251930Z 07007KT 9999 SCT044 17/09 Q1017
TAF GCFV 251400Z 2515/2615 07007KT 9999 BKN035 TX20/2613Z TN13/2606Z 
     BECMG 2523/2601 35010KT
       
LEGT 251800Z 14004KT 9999 BKN030 BKN040 08/05 Q1013
TAF LEGT 251700Z 2518/2603 20006KT 9999 SCT030 BKN040 
     PROB30 
     TEMPO 2518/2519 4000 SHRA SCT030TCU 
     TEMPO 2518/2522 4000 RA BKN012
       
LEGE 251930Z 31003KT 9999 FEW020 08/04 Q1017
TAF LEGE 251700Z 2518/2618 20012KT 9999 BKN030 TX21/2613Z TN05/2606Z 
     BECMG 2518/2519 VRB03KT 
     BECMG 2609/2612 19010KT 
     PROB30 
     TEMPO 2518/2522 4000 SHRA BKN014 FEW020TCU
       
GCLP 251930Z 03007KT 9999 FEW030 BKN040 17/09 Q1017 NOSIG
TAF GCLP 251400Z 2515/2615 04010KT 9999 BKN030 TX19/2613Z TN12/2606Z 
     BECMG 2520/2522 34008KT
       
LEGR 251930Z VRB02KT 9999 FEW050 08/03 Q1016
TAF LEGR 251400Z 2515/2615 VRB02KT 9999 SCT040 TX16/2515Z TN01/2607Z 
     TEMPO 2515/2518 24010KT 
     BECMG 2609/2611 19010KT
       
GCHI 251930Z AUTO 02003KT 340V060 9999 FEW028/// BKN048/// 17/11 Q1018
TAF GCHI 251400Z 2515/2615 03005KT 9999 BKN035 TX22/2613Z TN15/2606Z
       
LEIB 251930Z 19014KT 160V220 9999 FEW025 14/08 Q1018 NOSIG
TAF LEIB 251400Z 2515/2615 22012KT 9999 SCT030 TX18/2613Z TN10/2606Z 
     TEMPO 2515/2520 21015G25KT 
     BECMG 2523/2602 12008KT 
     TEMPO 2610/2615 08012KT 
     PROB30 
     TEMPO 2612/2615 08012G22KT
       
LEAB 251900Z 09006KT 050V120 9999 FEW040 11/02 Q1015 NOSIG
TAF LEAB 251700Z 2518/2603 28012KT 9999 FEW040
       
LEAL 251930Z 14003KT 080V180 CAVOK 12/08 Q1017 NOSIG
TAF LEAL 251700Z 2518/2618 18012KT CAVOK TX21/2612Z TN08/2606Z 
     BECMG 2518/2520 VRB04KT 
     TEMPO 2602/2608 33008KT 
     BECMG 2608/2611 08010KT
       
LEAM 251930Z 34004KT 320V080 CAVOK 13/04 Q1015
TAF LEAM 251400Z 2515/2615 20012KT 9999 FEW030 TX18/2615Z TN09/2606Z 
     BECMG 2519/2521 33006KT
       
TAF LEAO 251700Z 2518/2603 22012KT 9999 SCT025 
     PROB30 
     TEMPO 2518/2521 4000 SHRA FEW025TCU
       
LEAS 251930Z VRB01KT 9999 -RA FEW045 BKN050 07/06 Q1011 NOSIG
TAF LEAS 251400Z 2515/2615 21007KT 9999 BKN040 TX16/2615Z TN05/2601Z 
     PROB40 
     TEMPO 2515/2523 3000 RA 
     TEMPO 2515/2522 28012KT 
     TEMPO 2609/2615 11010KT
       
LEBA 251930Z AUTO 21008KT 9999 BKN049 12/08 Q1016
TAF LEBA 251400Z 2515/2524 VRB02KT 9999 SCT030 
     PROB40 
     TEMPO 2515/2521 22015G25KT 4000 SHRA FEW030TCU
       
LEBB 251930Z 18004KT 090V260 9000 -RA SCT020 BKN044 08/06 Q1012 TEMPO 3000 RA
TAF LEBB 251700Z 2518/2618 VRB04KT 9999 SCT010 BKN025 TX18/2614Z TN06/2604Z 
     PROB40 
     TEMPO 2518/2521 3000 RA BKN010 
     BECMG 2523/2603 18010KT 
     TEMPO 2612/2618 18015G28KT
       
LEBG 251930Z AUTO 12003KT 090V150 CAVOK 03/01 Q1011
TAF LEBG 251700Z 2518/2603 26008KT 9999 BKN035 
     PROB30 
     TEMPO 2518/2521 RA BKN010
       
LEBL 251930Z 33008KT 9999 FEW030 11/05 Q1017 NOSIG
TAF LEBL 251700Z 2518/2618 VRB05KT 9999 SCT030 TX18/2613Z TN09/2606Z 
     TEMPO 2518/2523 22008KT 
     TEMPO 2600/2610 34008KT 
     PROB30 
     TEMPO 2602/2608 BKN014 
     BECMG 2610/2612 22010KT
       
LEBT 251900Z AUTO VRB02KT CAVOK 12/07 Q1015
LEBZ 251900Z 24007KT CAVOK 13/04 Q1012
TAF LEBZ 251700Z 2518/2618 19009KT 9999 FEW030 TX16/2616Z TN06/2607Z 
     TEMPO 2610/2618 4000 SHRA SCT030TCU
       
LECH 251930Z AUTO 00000KT CAVOK 11/03 Q1016
LECO 251930Z 00000KT 9999 FEW013 SCT040 08/07 Q1010 NOSIG
TAF LECO 251400Z 2515/2615 01005KT 9999 SCT040 TX11/2614Z TN07/2606Z 
     TEMPO 2515/2516 RA 
     PROB30 
     TEMPO 2516/2521 RA BKN010 
     TEMPO 2521/2603 RA 
     PROB30 
     TEMPO 2603/2615 RA 
     TEMPO 2522/2609 BKN010 
     BECMG 2602/2606 18010KT 
     TEMPO 2609/2615 19015G30KT
       
LECV 251800Z 22005KT 9999 SCT010 BKN030 05/04 Q1012
TAF LECV 251700Z 2518/2603 22012KT 9999 FEW020 BKN030 
     PROB30 
     TEMPO 2518/2519 4000 SHRA SCT030TCU 
     TEMPO 2518/2522 4000 RA BKN012
       
TAF LEGA 251400Z 2515/2524 19008KT CAVOK
       
LEGE 251930Z 31003KT 9999 FEW020 08/04 Q1017
TAF LEGE 251700Z 2518/2618 20012KT 9999 BKN030 TX21/2613Z TN05/2606Z 
     BECMG 2518/2519 VRB03KT 
     BECMG 2609/2612 19010KT 
     PROB30 
     TEMPO 2518/2522 4000 SHRA BKN014 FEW020TCU
       
LEGR 251930Z VRB02KT 9999 FEW050 08/03 Q1016
TAF LEGR 251400Z 2515/2615 VRB02KT 9999 SCT040 TX16/2515Z TN01/2607Z 
     TEMPO 2515/2518 24010KT 
     BECMG 2609/2611 19010KT
       
LEGT 251800Z 14004KT 9999 BKN030 BKN040 08/05 Q1013
TAF LEGT 251700Z 2518/2603 20006KT 9999 SCT030 BKN040 
     PROB30 
     TEMPO 2518/2519 4000 SHRA SCT030TCU 
     TEMPO 2518/2522 4000 RA BKN012
       
LEHC 251930Z AUTO 05007KT 010V100 9999 BKN050 04/02 Q1015
TAF AMD LEHC 251330Z 2513/2609 VRB04KT 9999 SCT040 TX06/2514Z TN03/2607Z 
     PROB40 
     TEMPO 2513/2518 4000 SNRA BKN004 
     BECMG 2516/2518 09010KT
       
LEIB 251930Z 19014KT 160V220 9999 FEW025 14/08 Q1018 NOSIG
TAF LEIB 251400Z 2515/2615 22012KT 9999 SCT030 TX18/2613Z TN10/2606Z 
     TEMPO 2515/2520 21015G25KT 
     BECMG 2523/2602 12008KT 
     TEMPO 2610/2615 08012KT 
     PROB30 
     TEMPO 2612/2615 08012G22KT
       
LEJR 251930Z 19006KT 9999 FEW030 SCT040 12/11 Q1016
TAF LEJR 251700Z 2518/2618 19009KT 9999 SCT030 TX19/2614Z TN09/2606Z 
     PROB30 
     TEMPO 2518/2606 4000 SHRA FEW030TCU 
     TEMPO 2612/2618 20015G25KT
       
LELC 251900Z VRB02KT 9999 FEW030 13/08 Q1016 NOSIG
TAF LELC 251700Z 2518/2618 19012KT 9999 FEW030 TX18/2613Z TN07/2600Z 
     BECMG 2520/2522 33005KT 
     BECMG 2609/2611 06010KT
       
LELL 251930Z AUTO VRB01KT 9999 FEW035/// 09/06 Q1017
TAF LELL 251400Z 2515/2615 16010KT 9999 SCT030 TX19/2614Z TN06/2606Z 
     BECMG 2517/2520 VRB04KT 
     PROB30 
     TEMPO 2515/2518 4000 SHRA BKN014 SCT020TCU 
     PROB30 
     TEMPO 2515/2518 3000 TSRA BKN012 FEW020CB
       
LELN 251900Z 00000KT CAVOK 04/02 Q1009
TAF LELN 251700Z 2518/2603 29007KT 9999 SCT025 BKN030 
     PROB30 
     TEMPO 2518/2521 4000 RA BKN012
       
LELO 251900Z 05003KT 010V100 9999 -RA FEW010 OVC025 03/02 Q1014
TAF LELO 251700Z 2518/2603 08010KT 9999 SCT010 BKN020 
     PROB40 
     TEMPO 2518/2520 4000 RA FEW010 OVC020
       
LEMD 251930Z VRB02KT 9999 SCT030 BKN055 08/05 Q1013 NOSIG
TAF LEMD 251700Z 2518/2624 20010KT 9999 BKN030 BKN060 TX15/2615Z TN05/2606Z 
     PROB30 
     TEMPO 2518/2519 4000 SHRA SCT030TCU 
     TEMPO 2518/2522 4000 RA BKN012 
     PROB40 
     TEMPO 2609/2612 3000 RADZ BKN008
       
LEMG 251930Z 00000KT 9999 FEW030 11/07 Q1017 NOSIG
TAF LEMG 251700Z 2518/2618 12008KT 9999 FEW030 SCT050 TX16/2612Z TN04/2606Z 
     BECMG 2519/2521 30004KT 
     BECMG 2609/2611 12008KT
       
LEMH 251930Z 23010KT 9999 FEW028 13/08 Q1019
TAF LEMH 251400Z 2515/2615 21010KT 9999 SCT020 TX18/2613Z TN11/2606Z 
     TEMPO 2515/2518 21015G25KT 
     BECMG 2600/2603 14008KT
       
LEMO 251900Z 19012KT 6000 -SHRA SCT025TCU BKN050 12/09 Q1015 NOSIG
TAF LEMO 251700Z 2518/2603 19012KT 9999 SCT020 SCT040 
     PROB40 
     TEMPO 2518/2603 4000 SHRA FEW030TCU
       
LEPA 251930Z 22009KT 9999 FEW025 14/08 Q1018 NOSIG
TAF LEPA 251700Z 2518/2618 22012KT 9999 SCT025 TX20/2612Z TN06/2606Z 
     BECMG 2522/2524 VRB04KT 
     BECMG 2610/2613 11009KT
       
LEPP 251930Z 13006KT 090V190 9999 -RA SCT014 SCT022 BKN030 04/03 Q1015
TAF LEPP 251400Z 2515/2615 17006KT 9999 SCT010 BKN025 TX09/2609Z TN02/2605Z 
     TEMPO 2515/2520 RA BKN010 
     TEMPO 2521/2615 16016KT
       
LERI 251800Z 17012KT 9999 FEW030 14/06 Q1015 NOSIG
TAF LERI 251400Z 2515/2524 18008KT 9999 FEW030
       
LERS 251930Z VRB01KT 9999 FEW030 10/07 Q1017
TAF LERS 251400Z 2515/2615 VRB05KT 9999 SCT030 TX18/2614Z TN06/2606Z 
     TEMPO 2515/2518 15008KT 
     TEMPO 2600/2608 01007KT 
     BECMG 2608/2610 18007KT
       
LERT 251900Z 22006KT 9999 SCT025TCU SCT040 13/10 Q1015 TEMPO 4000 SHRA
TAF LERT 251700Z 2518/2603 19012KT 9999 SCT020 SCT040 
     PROB40 
     TEMPO 2518/2603 4000 SHRA SCT025CB
       
LESA 251800Z 26007KT 9999 FEW035 09/01 Q1010
TAF LESA 251700Z 2518/2618 22012KT 9999 SCT040 TX11/2615Z TN02/2606Z 
     PROB40 
     TEMPO 2518/2519 4000 SHRA SCT012TCU 
     TEMPO 2612/2618 SHRA SCT020TCU
       
LESO 251930Z 20013KT 170V230 9999 SCT055 10/03 Q1012
TAF LESO 251700Z 2518/2618 23009KT 8000 SCT010 BKN040 TX17/2614Z TN07/2524Z 
     TEMPO 2518/2520 BKN010 
     PROB30 
     TEMPO 2518/2521 3000 RADZ 
     PROB40 
     TEMPO 2518/2615 19015G32KT
       
LEST 251930Z VRB02KT 9999 FEW024 07/03 Q1010 NOSIG
TAF LEST 251700Z 2518/2618 06007KT 9999 SCT020 TX11/2614Z TN04/2604Z 
     PROB40 
     TEMPO 2521/2612 3000 RA BKN010 
     PROB40 
     TEMPO 2521/2610 0800 FG BKN002 
     BECMG 2601/2605 19010KT 
     PROB40 
     TEMPO 2519/2610 3000 SHRA SCT030TCU 
     PROB30 
     TEMPO 2519/2610 TS SCT030CB
       
LESU 251700Z 35004KT 9000 -RA FEW006 SCT015 BKN030 03/02 Q1016
TAF LESU 251400Z 2515/2615 VRB04KT 9999 BKN030 TX16/2614Z TNM01/2607Z 
     TEMPO 2515/2518 23013G25KT 
     PROB30 
     TEMPO 2515/2602 0500 SN FG BKN002
       
LETL 251930Z AUTO 15006KT 9999 FEW039/// BKN070/// 07/M00 Q1015
LETO 251900Z VRB01KT 9999 SCT030 BKN040 08/06 Q1013 NOSIG
TAF LETO 251700Z 2518/2618 20010KT 9999 BKN025 BKN050 TX15/2615Z TN04/2606Z 
     PROB30 
     TEMPO 2518/2519 4000 SHRA SCT030TCU 
     TEMPO 2518/2522 4000 RA BKN012 
     PROB40 
     TEMPO 2609/2612 3000 RADZ BKN008
       
LEVC 251930Z VRB01KT 9999 FEW020 14/08 Q1015 NOSIG
TAF LEVC 251700Z 2518/2618 25010KT CAVOK TX18/2614Z TN04/2606Z 
     TEMPO 2518/2520 21008KT 
     BECMG 2518/2520 VRB04KT 
     BECMG 2611/2614 09009KT
       
LEVD 251930Z 05005KT 9999 SCT044 06/01 Q1010
TAF LEVD 251700Z 2518/2618 22012KT 9999 SCT025 TX11/2615Z TN02/2606Z 
     PROB40 
     TEMPO 2519/2603 4000 RA BKN012
       
LEVS 251900Z 15005KT 9999 -RA BKN030 OVC045 07/04 Q1013
TAF LEVS 251700Z 2518/2603 23008KT 9999 SCT025 BKN030 
     PROB30 
     TEMPO 2518/2519 4000 SHRA SCT030TCU 
     TEMPO 2518/2522 4000 RA BKN012
       
LEVT 251930Z 00000KT 9999 RA SCT018 BKN025 BKN030 04/03 Q1012
TAF LEVT 251700Z 2518/2618 23009KT 9999 SCT015 BKN020 TX15/2614Z TN04/2524Z 
     TEMPO 2518/2521 3000 RA 
     PROB40 
     TEMPO 2518/2521 BKN010 
     PROB40 
     TEMPO 2518/2607 17015G28KT 
     PROB30 
     TEMPO 2603/2609 RA SHRA SCT030TCU
       
LEVX 251930Z 19004KT 140V240 9999 FEW023 SCT037 09/04 Q1010 NOSIG
TAF LEVX 251700Z 2518/2618 16006KT 9999 SCT040 TX14/2614Z TN09/2605Z 
     TEMPO 2520/2612 RA 
     PROB40 
     TEMPO 2518/2618 3000 SHRA SCT030TCU 
     PROB30 
     TEMPO 2518/2612 TS SCT030CB 
     TEMPO 2521/2612 1500 BR BKN010 
     PROB40 
     TEMPO 2521/2609 0600 FG BKN002 
     TEMPO 2602/2618 22012KT 
     PROB40 
     TEMPO 2606/2618 20015G27KT
       
LEXJ 251930Z 24009KT 9999 -RA FEW010 SCT022 BKN034 08/07 Q1011
TAF LEXJ 251400Z 2515/2615 24009KT 8000 FEW015 BKN025 TX17/2615Z TN05/2602Z 
     TEMPO 2515/2521 3000 RA 
     TEMPO 2521/2615 18010KT 
     TEMPO 2603/2615 19015G28KT
       
LEZG 251930Z 12013KT 9999 SCT050 BKN070 08/05 Q1015
TAF LEZG 251700Z 2518/2618 10008KT 9999 SCT040 TX19/2615Z TN06/2606Z 
     TEMPO 2610/2618 11015KT 
     PROB30 
     TEMPO 2522/2604 4000 SHRA BKN014 FEW020TCU
       
LEZL 251930Z 19007KT 150V230 9999 FEW040 13/11 Q1015 NOSIG
TAF AMD LEZL 251602Z 2516/2615 22012KT 9999 SCT020 SCT040 TX19/2615Z TN10/2606Z 
     TEMPO 2516/2522 4000 SHRA SCT025TCU 
     PROB40 
     TEMPO 2516/2518 22016G26KT 3000 TSRA SCT030CB 
     BECMG 2520/2522 16006KT 
     PROB30 
     TEMPO 2522/2610 4000 SHRA SCT025TCU
       
LEJR 251930Z 19006KT 9999 FEW030 SCT040 12/11 Q1016
TAF LEJR 251700Z 2518/2618 19009KT 9999 SCT030 TX19/2614Z TN09/2606Z 
     PROB30 
     TEMPO 2518/2606 4000 SHRA FEW030TCU 
     TEMPO 2612/2618 20015G25KT
       
GCGM 251930Z AUTO 22007KT 9999 SCT050 16/08 Q1018 RMK R09/23004KT 190V290 ARP/23004KT 170V290
GCLA 251930Z 01008KT 9999 FEW020 SCT035 BKN055 16/10 Q1018
TAF GCLA 251400Z 2515/2615 VRB06KT 9999 BKN030 TX21/2613Z TN14/2606Z
       
GCRR 251930Z 07008KT 9999 SCT045 17/09 Q1017
TAF GCRR 251400Z 2515/2615 35005KT 9999 BKN035 TX19/2613Z TN12/2606Z 
     TEMPO 2515/2518 10010KT
       
LELN 251900Z 00000KT CAVOK 04/02 Q1009
TAF LELN 251700Z 2518/2603 29007KT 9999 SCT025 BKN030 
     PROB30 
     TEMPO 2518/2521 4000 RA BKN012
       
LEMG 251930Z 00000KT 9999 FEW030 11/07 Q1017 NOSIG
TAF LEMG 251700Z 2518/2618 12008KT 9999 FEW030 SCT050 TX16/2612Z TN04/2606Z 
     BECMG 2519/2521 30004KT 
     BECMG 2609/2611 12008KT
       
GEML 251930Z 34003KT 300V010 CAVOK 14/06 Q1017
TAF GEML 251400Z 2515/2615 06008KT 9999 FEW015 TX18/2515Z TN09/2606Z
       
LEMH 251930Z 23010KT 9999 FEW028 13/08 Q1019
TAF LEMH 251400Z 2515/2615 21010KT 9999 SCT020 TX18/2613Z TN11/2606Z 
     TEMPO 2515/2518 21015G25KT 
     BECMG 2600/2603 14008KT
       
LEAB 251900Z 09006KT 050V120 9999 FEW040 11/02 Q1015 NOSIG
TAF LEAB 251700Z 2518/2603 28012KT 9999 FEW040
       
LEAL 251930Z 14003KT 080V180 CAVOK 12/08 Q1017 NOSIG
TAF LEAL 251700Z 2518/2618 18012KT CAVOK TX21/2612Z TN08/2606Z 
     BECMG 2518/2520 VRB04KT 
     TEMPO 2602/2608 33008KT 
     BECMG 2608/2611 08010KT
       
LEAM 251930Z 34004KT 320V080 CAVOK 13/04 Q1015
TAF LEAM 251400Z 2515/2615 20012KT 9999 FEW030 TX18/2615Z TN09/2606Z 
     BECMG 2519/2521 33006KT
       
TAF LEAO 251700Z 2518/2603 22012KT 9999 SCT025 
     PROB30 
     TEMPO 2518/2521 4000 SHRA FEW025TCU
       
LEAS 251930Z VRB01KT 9999 -RA FEW045 BKN050 07/06 Q1011 NOSIG
TAF LEAS 251400Z 2515/2615 21007KT 9999 BKN040 TX16/2615Z TN05/2601Z 
     PROB40 
     TEMPO 2515/2523 3000 RA 
     TEMPO 2515/2522 28012KT 
     TEMPO 2609/2615 11010KT
       
LEBA 251930Z AUTO 21008KT 9999 BKN049 12/08 Q1016
TAF LEBA 251400Z 2515/2524 VRB02KT 9999 SCT030 
     PROB40 
     TEMPO 2515/2521 22015G25KT 4000 SHRA FEW030TCU
       
LEBB 251930Z 18004KT 090V260 9000 -RA SCT020 BKN044 08/06 Q1012 TEMPO 3000 RA
TAF LEBB 251700Z 2518/2618 VRB04KT 9999 SCT010 BKN025 TX18/2614Z TN06/2604Z 
     PROB40 
     TEMPO 2518/2521 3000 RA BKN010 
     BECMG 2523/2603 18010KT 
     TEMPO 2612/2618 18015G28KT
       
LEBG 251930Z AUTO 12003KT 090V150 CAVOK 03/01 Q1011
TAF LEBG 251700Z 2518/2603 26008KT 9999 BKN035 
     PROB30 
     TEMPO 2518/2521 RA BKN010
       
LEBL 251930Z 33008KT 9999 FEW030 11/05 Q1017 NOSIG
TAF LEBL 251700Z 2518/2618 VRB05KT 9999 SCT030 TX18/2613Z TN09/2606Z 
     TEMPO 2518/2523 22008KT 
     TEMPO 2600/2610 34008KT 
     PROB30 
     TEMPO 2602/2608 BKN014 
     BECMG 2610/2612 22010KT
       
LEBT 251900Z AUTO VRB02KT CAVOK 12/07 Q1015
LEBZ 251900Z 24007KT CAVOK 13/04 Q1012
TAF LEBZ 251700Z 2518/2618 19009KT 9999 FEW030 TX16/2616Z TN06/2607Z 
     TEMPO 2610/2618 4000 SHRA SCT030TCU
       
LECH 251930Z AUTO 00000KT CAVOK 11/03 Q1016
LECO 251930Z 00000KT 9999 FEW013 SCT040 08/07 Q1010 NOSIG
TAF LECO 251400Z 2515/2615 01005KT 9999 SCT040 TX11/2614Z TN07/2606Z 
     TEMPO 2515/2516 RA 
     PROB30 
     TEMPO 2516/2521 RA BKN010 
     TEMPO 2521/2603 RA 
     PROB30 
     TEMPO 2603/2615 RA 
     TEMPO 2522/2609 BKN010 
     BECMG 2602/2606 18010KT 
     TEMPO 2609/2615 19015G30KT
       
LECV 251800Z 22005KT 9999 SCT010 BKN030 05/04 Q1012
TAF LECV 251700Z 2518/2603 22012KT 9999 FEW020 BKN030 
     PROB30 
     TEMPO 2518/2519 4000 SHRA SCT030TCU 
     TEMPO 2518/2522 4000 RA BKN012
       
TAF LEGA 251400Z 2515/2524 19008KT CAVOK
       
LEGE 251930Z 31003KT 9999 FEW020 08/04 Q1017
TAF LEGE 251700Z 2518/2618 20012KT 9999 BKN030 TX21/2613Z TN05/2606Z 
     BECMG 2518/2519 VRB03KT 
     BECMG 2609/2612 19010KT 
     PROB30 
     TEMPO 2518/2522 4000 SHRA BKN014 FEW020TCU
       
LEGR 251930Z VRB02KT 9999 FEW050 08/03 Q1016
TAF LEGR 251400Z 2515/2615 VRB02KT 9999 SCT040 TX16/2515Z TN01/2607Z 
     TEMPO 2515/2518 24010KT 
     BECMG 2609/2611 19010KT
       
LEGT 251800Z 14004KT 9999 BKN030 BKN040 08/05 Q1013
TAF LEGT 251700Z 2518/2603 20006KT 9999 SCT030 BKN040 
     PROB30 
     TEMPO 2518/2519 4000 SHRA SCT030TCU 
     TEMPO 2518/2522 4000 RA BKN012
       
LEHC 251930Z AUTO 05007KT 010V100 9999 BKN050 04/02 Q1015
TAF AMD LEHC 251330Z 2513/2609 VRB04KT 9999 SCT040 TX06/2514Z TN03/2607Z 
     PROB40 
     TEMPO 2513/2518 4000 SNRA BKN004 
     BECMG 2516/2518 09010KT
       
LEIB 251930Z 19014KT 160V220 9999 FEW025 14/08 Q1018 NOSIG
TAF LEIB 251400Z 2515/2615 22012KT 9999 SCT030 TX18/2613Z TN10/2606Z 
     TEMPO 2515/2520 21015G25KT 
     BECMG 2523/2602 12008KT 
     TEMPO 2610/2615 08012KT 
     PROB30 
     TEMPO 2612/2615 08012G22KT
       
LEJR 251930Z 19006KT 9999 FEW030 SCT040 12/11 Q1016
TAF LEJR 251700Z 2518/2618 19009KT 9999 SCT030 TX19/2614Z TN09/2606Z 
     PROB30 
     TEMPO 2518/2606 4000 SHRA FEW030TCU 
     TEMPO 2612/2618 20015G25KT
       
LELC 251900Z VRB02KT 9999 FEW030 13/08 Q1016 NOSIG
TAF LELC 251700Z 2518/2618 19012KT 9999 FEW030 TX18/2613Z TN07/2600Z 
     BECMG 2520/2522 33005KT 
     BECMG 2609/2611 06010KT
       
LELL 251930Z AUTO VRB01KT 9999 FEW035/// 09/06 Q1017
TAF LELL 251400Z 2515/2615 16010KT 9999 SCT030 TX19/2614Z TN06/2606Z 
     BECMG 2517/2520 VRB04KT 
     PROB30 
     TEMPO 2515/2518 4000 SHRA BKN014 SCT020TCU 
     PROB30 
     TEMPO 2515/2518 3000 TSRA BKN012 FEW020CB
       
LELN 251900Z 00000KT CAVOK 04/02 Q1009
TAF LELN 251700Z 2518/2603 29007KT 9999 SCT025 BKN030 
     PROB30 
     TEMPO 2518/2521 4000 RA BKN012
       
LELO 251900Z 05003KT 010V100 9999 -RA FEW010 OVC025 03/02 Q1014
TAF LELO 251700Z 2518/2603 08010KT 9999 SCT010 BKN020 
     PROB40 
     TEMPO 2518/2520 4000 RA FEW010 OVC020
       
LEMD 251930Z VRB02KT 9999 SCT030 BKN055 08/05 Q1013 NOSIG
TAF LEMD 251700Z 2518/2624 20010KT 9999 BKN030 BKN060 TX15/2615Z TN05/2606Z 
     PROB30 
     TEMPO 2518/2519 4000 SHRA SCT030TCU 
     TEMPO 2518/2522 4000 RA BKN012 
     PROB40 
     TEMPO 2609/2612 3000 RADZ BKN008
       
LEMG 251930Z 00000KT 9999 FEW030 11/07 Q1017 NOSIG
TAF LEMG 251700Z 2518/2618 12008KT 9999 FEW030 SCT050 TX16/2612Z TN04/2606Z 
     BECMG 2519/2521 30004KT 
     BECMG 2609/2611 12008KT
       
LEMH 251930Z 23010KT 9999 FEW028 13/08 Q1019
TAF LEMH 251400Z 2515/2615 21010KT 9999 SCT020 TX18/2613Z TN11/2606Z 
     TEMPO 2515/2518 21015G25KT 
     BECMG 2600/2603 14008KT
       
LEMO 251900Z 19012KT 6000 -SHRA SCT025TCU BKN050 12/09 Q1015 NOSIG
TAF LEMO 251700Z 2518/2603 19012KT 9999 SCT020 SCT040 
     PROB40 
     TEMPO 2518/2603 4000 SHRA FEW030TCU
       
LEPA 251930Z 22009KT 9999 FEW025 14/08 Q1018 NOSIG
TAF LEPA 251700Z 2518/2618 22012KT 9999 SCT025 TX20/2612Z TN06/2606Z 
     BECMG 2522/2524 VRB04KT 
     BECMG 2610/2613 11009KT
       
LEPP 251930Z 13006KT 090V190 9999 -RA SCT014 SCT022 BKN030 04/03 Q1015
TAF LEPP 251400Z 2515/2615 17006KT 9999 SCT010 BKN025 TX09/2609Z TN02/2605Z 
     TEMPO 2515/2520 RA BKN010 
     TEMPO 2521/2615 16016KT
       
LERI 251800Z 17012KT 9999 FEW030 14/06 Q1015 NOSIG
TAF LERI 251400Z 2515/2524 18008KT 9999 FEW030
       
LERS 251930Z VRB01KT 9999 FEW030 10/07 Q1017
TAF LERS 251400Z 2515/2615 VRB05KT 9999 SCT030 TX18/2614Z TN06/2606Z 
     TEMPO 2515/2518 15008KT 
     TEMPO 2600/2608 01007KT 
     BECMG 2608/2610 18007KT
       
LERT 251900Z 22006KT 9999 SCT025TCU SCT040 13/10 Q1015 TEMPO 4000 SHRA
TAF LERT 251700Z 2518/2603 19012KT 9999 SCT020 SCT040 
     PROB40 
     TEMPO 2518/2603 4000 SHRA SCT025CB
       
LESA 251800Z 26007KT 9999 FEW035 09/01 Q1010
TAF LESA 251700Z 2518/2618 22012KT 9999 SCT040 TX11/2615Z TN02/2606Z 
     PROB40 
     TEMPO 2518/2519 4000 SHRA SCT012TCU 
     TEMPO 2612/2618 SHRA SCT020TCU
       
LESO 251930Z 20013KT 170V230 9999 SCT055 10/03 Q1012
TAF LESO 251700Z 2518/2618 23009KT 8000 SCT010 BKN040 TX17/2614Z TN07/2524Z 
     TEMPO 2518/2520 BKN010 
     PROB30 
     TEMPO 2518/2521 3000 RADZ 
     PROB40 
     TEMPO 2518/2615 19015G32KT
       
LEST 251930Z VRB02KT 9999 FEW024 07/03 Q1010 NOSIG
TAF LEST 251700Z 2518/2618 06007KT 9999 SCT020 TX11/2614Z TN04/2604Z 
     PROB40 
     TEMPO 2521/2612 3000 RA BKN010 
     PROB40 
     TEMPO 2521/2610 0800 FG BKN002 
     BECMG 2601/2605 19010KT 
     PROB40 
     TEMPO 2519/2610 3000 SHRA SCT030TCU 
     PROB30 
     TEMPO 2519/2610 TS SCT030CB
       
LESU 251700Z 35004KT 9000 -RA FEW006 SCT015 BKN030 03/02 Q1016
TAF LESU 251400Z 2515/2615 VRB04KT 9999 BKN030 TX16/2614Z TNM01/2607Z 
     TEMPO 2515/2518 23013G25KT 
     PROB30 
     TEMPO 2515/2602 0500 SN FG BKN002
       
LETL 251930Z AUTO 15006KT 9999 FEW039/// BKN070/// 07/M00 Q1015
LETO 251900Z VRB01KT 9999 SCT030 BKN040 08/06 Q1013 NOSIG
TAF LETO 251700Z 2518/2618 20010KT 9999 BKN025 BKN050 TX15/2615Z TN04/2606Z 
     PROB30 
     TEMPO 2518/2519 4000 SHRA SCT030TCU 
     TEMPO 2518/2522 4000 RA BKN012 
     PROB40 
     TEMPO 2609/2612 3000 RADZ BKN008
       
LEVC 251930Z VRB01KT 9999 FEW020 14/08 Q1015 NOSIG
TAF LEVC 251700Z 2518/2618 25010KT CAVOK TX18/2614Z TN04/2606Z 
     TEMPO 2518/2520 21008KT 
     BECMG 2518/2520 VRB04KT 
     BECMG 2611/2614 09009KT
       
LEVD 251930Z 05005KT 9999 SCT044 06/01 Q1010
TAF LEVD 251700Z 2518/2618 22012KT 9999 SCT025 TX11/2615Z TN02/2606Z 
     PROB40 
     TEMPO 2519/2603 4000 RA BKN012
       
LEVS 251900Z 15005KT 9999 -RA BKN030 OVC045 07/04 Q1013
TAF LEVS 251700Z 2518/2603 23008KT 9999 SCT025 BKN030 
     PROB30 
     TEMPO 2518/2519 4000 SHRA SCT030TCU 
     TEMPO 2518/2522 4000 RA BKN012
       
LEVT 251930Z 00000KT 9999 RA SCT018 BKN025 BKN030 04/03 Q1012
TAF LEVT 251700Z 2518/2618 23009KT 9999 SCT015 BKN020 TX15/2614Z TN04/2524Z 
     TEMPO 2518/2521 3000 RA 
     PROB40 
     TEMPO 2518/2521 BKN010 
     PROB40 
     TEMPO 2518/2607 17015G28KT 
     PROB30 
     TEMPO 2603/2609 RA SHRA SCT030TCU
       
LEVX 251930Z 19004KT 140V240 9999 FEW023 SCT037 09/04 Q1010 NOSIG
TAF LEVX 251700Z 2518/2618 16006KT 9999 SCT040 TX14/2614Z TN09/2605Z 
     TEMPO 2520/2612 RA 
     PROB40 
     TEMPO 2518/2618 3000 SHRA SCT030TCU 
     PROB30 
     TEMPO 2518/2612 TS SCT030CB 
     TEMPO 2521/2612 1500 BR BKN010 
     PROB40 
     TEMPO 2521/2609 0600 FG BKN002 
     TEMPO 2602/2618 22012KT 
     PROB40 
     TEMPO 2606/2618 20015G27KT
       
LEXJ 251930Z 24009KT 9999 -RA FEW010 SCT022 BKN034 08/07 Q1011
TAF LEXJ 251400Z 2515/2615 24009KT 8000 FEW015 BKN025 TX17/2615Z TN05/2602Z 
     TEMPO 2515/2521 3000 RA 
     TEMPO 2521/2615 18010KT 
     TEMPO 2603/2615 19015G28KT
       
LEZG 251930Z 12013KT 9999 SCT050 BKN070 08/05 Q1015
TAF LEZG 251700Z 2518/2618 10008KT 9999 SCT040 TX19/2615Z TN06/2606Z 
     TEMPO 2610/2618 11015KT 
     PROB30 
     TEMPO 2522/2604 4000 SHRA BKN014 FEW020TCU
       
LEZL 251930Z 19007KT 150V230 9999 FEW040 13/11 Q1015 NOSIG
TAF AMD LEZL 251602Z 2516/2615 22012KT 9999 SCT020 SCT040 TX19/2615Z TN10/2606Z 
     TEMPO 2516/2522 4000 SHRA SCT025TCU 
     PROB40 
     TEMPO 2516/2518 22016G26KT 3000 TSRA SCT030CB 
     BECMG 2520/2522 16006KT 
     PROB30 
     TEMPO 2522/2610 4000 SHRA SCT025TCU
       
LEMO 251900Z 19012KT 6000 -SHRA SCT025TCU BKN050 12/09 Q1015 NOSIG
TAF LEMO 251700Z 2518/2603 19012KT 9999 SCT020 SCT040 
     PROB40 
     TEMPO 2518/2603 4000 SHRA FEW030TCU
       
LEPP 251930Z 13006KT 090V190 9999 -RA SCT014 SCT022 BKN030 04/03 Q1015
TAF LEPP 251400Z 2515/2615 17006KT 9999 SCT010 BKN025 TX09/2609Z TN02/2605Z 
     TEMPO 2515/2520 RA BKN010 
     TEMPO 2521/2615 16016KT
       
LERS 251930Z VRB01KT 9999 FEW030 10/07 Q1017
TAF LERS 251400Z 2515/2615 VRB05KT 9999 SCT030 TX18/2614Z TN06/2606Z 
     TEMPO 2515/2518 15008KT 
     TEMPO 2600/2608 01007KT 
     BECMG 2608/2610 18007KT
       
LERT 251900Z 22006KT 9999 SCT025TCU SCT040 13/10 Q1015 TEMPO 4000 SHRA
TAF LERT 251700Z 2518/2603 19012KT 9999 SCT020 SCT040 
     PROB40 
     TEMPO 2518/2603 4000 SHRA SCT025CB
       
LESA 251800Z 26007KT 9999 FEW035 09/01 Q1010
TAF LESA 251700Z 2518/2618 22012KT 9999 SCT040 TX11/2615Z TN02/2606Z 
     PROB40 
     TEMPO 2518/2519 4000 SHRA SCT012TCU 
     TEMPO 2612/2618 SHRA SCT020TCU
       
LESO 251930Z 20013KT 170V230 9999 SCT055 10/03 Q1012
TAF LESO 251700Z 2518/2618 23009KT 8000 SCT010 BKN040 TX17/2614Z TN07/2524Z 
     TEMPO 2518/2520 BKN010 
     PROB30 
     TEMPO 2518/2521 3000 RADZ 
     PROB40 
     TEMPO 2518/2615 19015G32KT
       
LEXJ 251930Z 24009KT 9999 -RA FEW010 SCT022 BKN034 08/07 Q1011
TAF LEXJ 251400Z 2515/2615 24009KT 8000 FEW015 BKN025 TX17/2615Z TN05/2602Z 
     TEMPO 2515/2521 3000 RA 
     TEMPO 2521/2615 18010KT 
     TEMPO 2603/2615 19015G28KT
       
LEST 251930Z VRB02KT 9999 FEW024 07/03 Q1010 NOSIG
TAF LEST 251700Z 2518/2618 06007KT 9999 SCT020 TX11/2614Z TN04/2604Z 
     PROB40 
     TEMPO 2521/2612 3000 RA BKN010 
     PROB40 
     TEMPO 2521/2610 0800 FG BKN002 
     BECMG 2601/2605 19010KT 
     PROB40 
     TEMPO 2519/2610 3000 SHRA SCT030TCU 
     PROB30 
     TEMPO 2519/2610 TS SCT030CB
       
LESU 251700Z 35004KT 9000 -RA FEW006 SCT015 BKN030 03/02 Q1016
TAF LESU 251400Z 2515/2615 VRB04KT 9999 BKN030 TX16/2614Z TNM01/2607Z 
     TEMPO 2515/2518 23013G25KT 
     PROB30 
     TEMPO 2515/2602 0500 SN FG BKN002
       
LEZL 251930Z 19007KT 150V230 9999 FEW040 13/11 Q1015 NOSIG
TAF AMD LEZL 251602Z 2516/2615 22012KT 9999 SCT020 SCT040 TX19/2615Z TN10/2606Z 
     TEMPO 2516/2522 4000 SHRA SCT025TCU 
     PROB40 
     TEMPO 2516/2518 22016G26KT 3000 TSRA SCT030CB 
     BECMG 2520/2522 16006KT 
     PROB30 
     TEMPO 2522/2610 4000 SHRA SCT025TCU
       
LEBZ 251900Z 24007KT CAVOK 13/04 Q1012
TAF LEBZ 251700Z 2518/2618 19009KT 9999 FEW030 TX16/2616Z TN06/2607Z 
     TEMPO 2610/2618 4000 SHRA SCT030TCU
       
GCXO 251930Z VRB01KT 9999 BKN025 11/09 Q1018 NOSIG
TAF GCXO 251400Z 2515/2615 VRB09KT 9999 BKN016 TX15/2613Z TN08/2606Z 
     PROB40 
     TEMPO 2515/2520 3000 BCFG BKN008
       
GCTS 251930Z 07005KT 040V100 9999 SCT040 BKN050 17/09 Q1018 NOSIG
TAF GCTS 251400Z 2515/2615 10010KT 9999 BKN035 TX19/2613Z TN15/2606Z 
     BECMG 2520/2522 04005KT
       
LETO 251900Z VRB01KT 9999 SCT030 BKN040 08/06 Q1013 NOSIG
TAF LETO 251700Z 2518/2618 20010KT 9999 BKN025 BKN050 TX15/2615Z TN04/2606Z 
     PROB30 
     TEMPO 2518/2519 4000 SHRA SCT030TCU 
     TEMPO 2518/2522 4000 RA BKN012 
     PROB40 
     TEMPO 2609/2612 3000 RADZ BKN008
       
LEVC 251930Z VRB01KT 9999 FEW020 14/08 Q1015 NOSIG
TAF LEVC 251700Z 2518/2618 25010KT CAVOK TX18/2614Z TN04/2606Z 
     TEMPO 2518/2520 21008KT 
     BECMG 2518/2520 VRB04KT 
     BECMG 2611/2614 09009KT
       
LEVD 251930Z 05005KT 9999 SCT044 06/01 Q1010
TAF LEVD 251700Z 2518/2618 22012KT 9999 SCT025 TX11/2615Z TN02/2606Z 
     PROB40 
     TEMPO 2519/2603 4000 RA BKN012
       
LEVX 251930Z 19004KT 140V240 9999 FEW023 SCT037 09/04 Q1010 NOSIG
TAF LEVX 251700Z 2518/2618 16006KT 9999 SCT040 TX14/2614Z TN09/2605Z 
     TEMPO 2520/2612 RA 
     PROB40 
     TEMPO 2518/2618 3000 SHRA SCT030TCU 
     PROB30 
     TEMPO 2518/2612 TS SCT030CB 
     TEMPO 2521/2612 1500 BR BKN010 
     PROB40 
     TEMPO 2521/2609 0600 FG BKN002 
     TEMPO 2602/2618 22012KT 
     PROB40 
     TEMPO 2606/2618 20015G27KT
       
LEVT 251930Z 00000KT 9999 RA SCT018 BKN025 BKN030 04/03 Q1012
TAF LEVT 251700Z 2518/2618 23009KT 9999 SCT015 BKN020 TX15/2614Z TN04/2524Z 
     TEMPO 2518/2521 3000 RA 
     PROB40 
     TEMPO 2518/2521 BKN010 
     PROB40 
     TEMPO 2518/2607 17015G28KT 
     PROB30 
     TEMPO 2603/2609 RA SHRA SCT030TCU
       
LEZG 251930Z 12013KT 9999 SCT050 BKN070 08/05 Q1015
TAF LEZG 251700Z 2518/2618 10008KT 9999 SCT040 TX19/2615Z TN06/2606Z 
     TEMPO 2610/2618 11015KT 
     PROB30 
     TEMPO 2522/2604 4000 SHRA BKN014 FEW020TCU